Kansai International Airport Osaka JP
ICAO: RJBB
IATA: KIX
Category: Large
Scheduled Services:

Elevation: 26 ft
TransAlt. 0 ft.

Airport Communications:
APP:120.25
ATIS:127.85
CLNC DEL:121.9
DEP:119.2
GND:121.6
TCA:121.1
TWR:118.2

RJBB Zoom In..

If you have problems with the map follow the link
https://www.worldairports.se/pages/airport.php?
ICAO=RJBB

Runways:

(A) RW 06L length 13123 ft width 197 ft
ILS 108.70 / hdg 58

(B) RW 06R length 11483 ft width 197 ft
ILS 108.10 / hdg 58

(C) RW 24L length 11483 ft width 197 ft
ILS 110.70 / hdg 238

(D) RW 24R length 13123 ft width 197 ft
ILS 108.50 / hdg 238

Location; RJBB
Day. 22 / Time. 12.30 Zulu
* QNH: 1015
* Temperature: 10° c. 50°f.
* Wind from: 040° Speed 15 kn.
Dewpoint: 04° c.
Visibility: 10 km or more.
Clouds: Few 4000 ft.
Clouds: Scattered 1000 ft.
Clouds: Broken 12000 ft.
No significant changes expected in the near future.

RJBB 221230Z 04015KT 9999 FEW040 SCT100 BKN120 10/04 Q1015 NOSIG


Wind From 040°
Speed 15 kn.

 
 
jpsmedia.com for Web Design worldairports.se 2019   terms of use